Lumberton, NC

12:40 AM EDT on October 19, 2017 (GMT -0400)
Lumberton Municipal

Weather History for KLBT - September, 2013

Change the Weather History Date:

Saturday, September 28, 2013

  Actual Average Record
Temperature  
Mean Temperature 67 °F 69 °F  
Max Temperature 78 °F 81 °F 94 °F (2017)
Min Temperature 55 °F 58 °F 48 °F (2000)
Degree Days  
Heating Degree Days 0 1  
Month to date heating degree days 0 6  
Since 1 July heating degree days 0 6  
Cooling Degree Days 2 5  
Month to date cooling degree days 255 237  
Year to date cooling degree days 1766 1809  
Growing Degree Days 16 (Base 50)    
Moisture  
Dew Point 55 °F    
Average Humidity 69    
Maximum Humidity 93    
Minimum Humidity 45    
Precipitation  
Precipitation 0.00 in 0.16 in 0.40 in (2006)
Month to date precipitation 1.42 4.49  
Year to date precipitation 37.40 34.88  
Sea Level Pressure  
Sea Level Pressure 30.16 in    
Wind  
Wind Speed 8 mph (NNE)    
Max Wind Speed 20 mph    
Max Gust Speed 24 mph    
Visibility 10 miles    
Events      
T = Trace of Precipitation, MM = Missing Value Source: NWS Daily Summary

Daily Weather History Graph

Daily Weather History Graph

Search for Another Location

Airport or City:

Trip Planner

Search our weather history database for the weather conditions in past years. The results will help you decide how hot, cold, wet, or windy it might be!

Date:

Astronomy

Sep. 28, 2013 Rise Set
Actual Time 7:08 AM EDT 7:04 PM EDT
Civil Twilight 6:43 AM EDT 7:29 PM EDT
Nautical Twilight 6:14 AM EDT 7:58 PM EDT
Astronomical Twilight 5:45 AM EDT 8:27 PM EDT
Moon 1:07 AM EDT (9/28) 3:10 PM EDT (9/28)
Length of Visible Light 12h 45m
Length of Day
11h 55m
Last Quarter, 36% of the Moon is Illuminated
Sep 28
Last Quarter
Oct 4
New
Oct 11
First Quarter
Oct 18
Full
Oct 26
Last Quarter

Hourly Weather History & Observations

Time (EDT) Temp. Dew Point Humidity Pressure Visibility Wind Dir Wind Speed Gust Speed Precip Events Conditions
12:54 AM 57.9 °F 54.0 °F 87% 30.15 in 10.0 mi North 5.8 mph - N/A   Clear
1:54 AM 55.9 °F 53.1 °F 90% 30.15 in 10.0 mi North 3.5 mph - N/A   Clear
2:54 AM 55.9 °F 53.1 °F 90% 30.14 in 10.0 mi North 5.8 mph - N/A   Clear
3:54 AM 55.9 °F 53.1 °F 90% 30.13 in 10.0 mi North 3.5 mph - N/A   Clear
4:54 AM 55.0 °F 53.1 °F 93% 30.14 in 10.0 mi North 5.8 mph - N/A   Clear
5:54 AM 55.0 °F 53.1 °F 93% 30.15 in 10.0 mi North 4.6 mph - N/A   Partly Cloudy
6:54 AM 57.0 °F 55.0 °F 93% 30.16 in 10.0 mi North 6.9 mph - N/A   Overcast
7:54 AM 59.0 °F 55.0 °F 87% 30.18 in 10.0 mi NNE 6.9 mph - N/A   Overcast
8:54 AM 62.1 °F 55.0 °F 78% 30.19 in 10.0 mi NE 10.4 mph - N/A   Scattered Clouds
9:54 AM 66.0 °F 55.9 °F 70% 30.20 in 10.0 mi NNE 13.8 mph 19.6 mph N/A   Mostly Cloudy
10:54 AM 70.0 °F 55.0 °F 59% 30.21 in 10.0 mi NNE 16.1 mph 21.9 mph N/A   Clear
11:54 AM 73.0 °F 55.0 °F 53% 30.20 in 10.0 mi NE 16.1 mph 21.9 mph N/A   Clear
12:54 PM 73.9 °F 54.0 °F 50% 30.19 in 10.0 mi NNE 11.5 mph 18.4 mph N/A   Partly Cloudy
1:54 PM 75.9 °F 55.0 °F 48% 30.17 in 10.0 mi NNE 13.8 mph 19.6 mph N/A   Partly Cloudy
2:54 PM 78.1 °F 55.0 °F 45% 30.15 in 10.0 mi NNE 12.7 mph 18.4 mph N/A   Scattered Clouds
3:54 PM 73.9 °F 54.0 °F 50% 30.13 in 10.0 mi NNE 12.7 mph 21.9 mph N/A   Mostly Cloudy
4:54 PM 75.9 °F 54.0 °F 46% 30.13 in 10.0 mi NE 10.4 mph 19.6 mph N/A   Partly Cloudy
5:54 PM 75.0 °F 54.0 °F 48% 30.14 in 10.0 mi NNE 11.5 mph - N/A   Mostly Cloudy
6:54 PM 70.0 °F 55.0 °F 59% 30.14 in 10.0 mi North 4.6 mph - N/A   Clear
7:54 PM 64.0 °F 55.0 °F 73% 30.14 in 10.0 mi Calm Calm - N/A   Clear
8:54 PM 64.0 °F 55.9 °F 75% 30.15 in 10.0 mi North 4.6 mph - N/A   Scattered Clouds
9:54 PM 62.1 °F 55.9 °F 80% 30.15 in 10.0 mi NNE 4.6 mph - N/A   Clear
10:54 PM 64.0 °F 55.9 °F 75% 30.14 in 10.0 mi NE 8.1 mph - N/A   Partly Cloudy
11:54 PM 62.1 °F 57.0 °F 84% 30.14 in 10.0 mi NE 6.9 mph - N/A   Clear